GEFSMW_500_meanwind_252.txt.gz
Wind_Speed
7 7 7 7 7 8 8 7 8 8 8 8 8 8 8 9 9 9 9 9 9 9 9 9 9 9 9 10 10 10 11 12 12 11 12 13 13 13 13 13 13 13 13
8 8 9 9 9 8 9 9 8 8 8 8 8 8 8 8 8 8 9 9 9 9 9 9 9 10 10 11 11 11 11 12 12 12 12 12 12 13 13 13 14 14 14
9 9 9 9 9 9 9 9 9 8 8 8 8 8 9 8 9 9 9 9 9 9 9 10 11 11 11 11 11 11 11 11 12 12 12 12 12 13 14 14 14 14 14
9 9 9 8 8 9 9 9 9 8 8 9 9 9 8 9 9 10 10 9 9 10 11 11 12 12 12 12 11 11 11 12 12 12 12 12 13 13 13 14 14 14 14
10 10 10 9 9 9 9 9 9 9 9 9 10 10 10 10 10 10 10 10 11 11 11 12 12 12 12 12 11 11 12 12 12 12 13 13 13 14 14 14 15 15 15
10 10 10 10 10 10 9 9 10 10 10 10 10 11 11 10 11 11 11 11 12 12 12 12 12 12 12 11 12 12 12 13 13 13 13 14 14 15 15 15 15 16 16
11 11 11 11 10 10 10 11 11 11 11 11 12 12 12 12 12 12 12 13 13 13 13 13 12 12 12 12 13 13 13 13 14 14 15 15 15 15 15 15 16 16 16
12 12 12 11 11 11 11 12 12 12 12 13 13 13 13 13 13 13 14 14 14 14 14 14 13 14 14 14 14 14 14 14 14 15 16 16 16 16 15 16 16 17 17
13 13 13 13 12 12 13 13 13 13 13 13 13 14 13 14 14 15 15 15 15 14 15 15 15 15 15 15 15 15 15 15 16 16 16 16 16 16 16 17 17 17 17
14 14 14 14 14 14 14 14 14 14 14 14 14 14 15 15 16 16 16 16 16 16 16 17 17 17 16 16 16 16 16 17 17 16 16 16 17 17 17 18 18 18 17
15 16 16 15 16 16 16 16 16 16 16 16 16 16 16 16 17 17 17 17 17 17 17 18 18 18 18 17 17 17 17 17 17 17 17 17 17 18 18 18 18 19 18
16 17 17 17 17 17 17 17 18 17 18 18 18 18 18 17 17 17 17 18 18 18 18 18 18 18 18 19 19 19 18 17 17 17 17 17 18 18 19 19 20 20 20
17 18 18 18 19 19 19 19 19 19 19 19 19 19 19 18 19 19 19 19 19 19 19 20 20 19 19 20 20 20 19 18 17 17 18 19 19 19 19 20 21 21 21
19 19 19 19 19 20 20 20 20 20 20 20 20 20 21 21 21 20 20 20 20 20 20 21 21 21 21 21 20 20 19 18 18 18 19 20 20 20 21 21 21 22 22
21 20 20 20 20 21 21 21 21 21 21 20 20 21 21 22 22 22 22 22 21 22 22 22 22 22 22 21 20 20 19 19 20 20 20 20 21 21 21 21 22 22 23
22 22 22 22 22 23 23 23 23 23 23 23 22 22 22 22 22 22 23 23 23 23 23 23 23 23 22 21 21 21 21 21 21 22 21 21 21 22 23 23 24 24 24
23 23 24 24 23 24 24 24 24 23 23 23 23 24 24 24 24 24 24 24 24 24 24 24 24 24 23 23 22 22 22 22 22 23 23 23 23 23 24 25 25 25 26
24 25 25 25 25 25 25 25 24 24 24 25 25 25 25 26 26 26 25 25 26 26 26 25 25 25 24 24 24 24 25 24 24 24 24 25 26 26 26 26 26 27 26
25 25 25 26 26 26 26 26 25 26 26 27 27 27 27 27 27 27 27 27 27 27 27 27 27 26 26 26 26 27 27 26 26 26 26 27 27 28 27 27 27 27 27
27 27 26 26 26 27 27 27 27 27 27 27 28 28 28 29 29 29 28 28 28 28 28 28 28 27 27 27 28 28 28 28 28 28 28 28 29 29 29 29 28 28 28
28 28 28 27 28 28 28 29 29 29 28 28 29 29 30 29 29 29 29 29 30 30 30 29 29 29 29 29 29 30 30 30 29 29 29 30 30 29 30 30 29 29 29
29 29 29 29 29 29 29 29 30 30 30 30 30 30 30 30 30 30 31 31 31 31 31 31 31 31 30 31 31 32 32 31 31 31 31 30 31 30 31 30 30 30 29
29 29 29 29 30 30 30 31 31 31 31 31 32 32 31 31 32 32 32 32 33 33 33 32 32 32 31 31 32 32 32 32 32 31 31 31 31 31 32 31 31 30 29
30 30 30 30 30 31 32 32 32 33 33 33 33 33 33 33 33 33 33 33 33 34 34 34 34 33 33 33 33 33 33 33 32 32 32 32 32 32 32 32 32 32 31
31 31 31 31 31 32 33 33 34 34 34 34 35 35 35 35 35 35 34 34 35 35 34 34 34 34 34 34 34 35 34 34 34 34 33 32 32 32 32 32 32 33 32
32 32 32 32 32 33 33 35 35 36 36 36 36 37 37 37 37 36 36 36 36 35 35 35 35 35 36 36 36 35 35 35 35 34 34 33 33 33 33 33 33 32 32

GEFSMW_500_meanwind_258.txt.gz
Wind_Speed
5 5 6 6 6 6 6 6 6 6 7 7 7 7 7 7 7 6 6 7 7 8 8 8 8 8 8 8 8 8 8 8 8 9 9 10 10 10 11 12 12 12 12
6 6 6 7 7 7 6 7 7 7 7 8 7 7 7 6 6 6 6 7 7 7 8 7 8 8 8 8 8 8 9 9 9 10 10 10 10 10 11 11 11 12 12
6 7 7 7 8 8 7 7 7 7 8 8 7 7 6 6 6 6 6 7 6 7 8 9 9 9 9 9 9 10 9 9 9 9 9 10 10 11 11 11 11 12 12
7 7 8 8 8 8 8 7 7 8 8 8 7 6 7 7 7 7 7 7 8 9 10 10 10 10 10 10 10 10 10 10 10 10 10 10 11 11 11 11 12 12 12
6 7 8 8 8 8 8 8 8 8 8 8 8 8 9 9 9 9 9 10 10 10 11 10 10 10 10 10 10 11 11 11 11 11 11 11 11 11 11 11 12 12 12
7 7 8 8 8 9 8 8 8 9 9 9 9 10 10 10 10 10 10 10 11 11 11 11 10 10 10 11 11 11 11 11 12 11 11 12 12 12 12 11 12 12 13
8 8 8 8 8 9 9 9 9 10 10 10 11 11 11 11 11 11 11 11 11 11 11 12 11 11 11 12 12 12 12 12 12 12 13 13 12 13 13 13 13 13 13
9 9 9 9 10 10 10 11 11 11 11 11 12 12 12 12 12 12 12 12 12 13 13 13 13 13 13 13 13 13 13 13 13 13 14 13 13 13 13 13 12 13 13
10 10 10 10 11 11 11 11 11 12 12 12 13 14 13 14 14 13 14 14 14 14 14 14 14 14 14 14 14 14 14 14 14 14 14 14 14 14 14 14 13 13 14
12 12 12 12 12 12 12 13 12 13 13 14 14 14 15 15 15 15 15 15 15 15 15 15 15 16 15 15 15 16 16 16 15 15 15 15 15 15 15 15 15 15 15
13 13 13 13 13 14 14 14 14 15 15 15 15 15 16 16 16 16 16 16 16 16 16 16 17 17 17 17 17 17 17 17 17 17 16 17 17 16 17 16 16 16 16
14 14 15 15 14 15 15 16 16 16 17 17 16 16 16 17 17 17 16 16 17 17 17 17 18 18 18 18 18 19 19 19 18 18 17 17 17 17 17 17 17 17 17
15 16 16 16 16 16 16 16 17 17 17 18 18 18 17 17 18 17 16 16 16 17 18 18 18 18 19 19 20 20 20 20 20 20 20 19 19 19 19 18 18 18 18
17 17 17 17 17 17 18 18 18 18 19 19 19 19 19 19 19 19 18 18 18 18 18 19 20 20 21 21 21 21 20 20 21 21 21 21 21 20 20 20 19 20 20
18 18 18 18 19 19 20 20 19 19 19 20 20 20 20 20 20 20 20 20 20 20 20 20 21 22 22 21 20 20 21 21 21 22 22 22 22 22 22 22 21 21 21
19 19 19 18 19 20 21 21 21 21 20 20 20 21 21 20 20 20 20 21 22 21 21 21 22 22 22 22 22 22 22 22 22 22 22 22 23 23 22 23 23 23 22
20 21 21 21 21 21 22 22 22 22 22 22 21 21 22 22 22 22 21 22 22 22 23 23 23 23 24 24 24 24 24 24 23 23 23 24 24 23 23 24 24 23 23
22 22 22 22 22 22 22 23 23 23 23 24 23 23 23 23 23 23 23 24 24 24 24 25 25 25 25 25 25 26 26 25 25 25 25 25 25 25 25 25 25 25 25
24 23 23 23 23 23 23 24 24 24 24 25 25 25 25 25 25 25 25 25 25 26 26 25 26 26 26 26 27 27 27 27 27 27 27 27 27 26 26 26 26 26 26
24 24 23 23 24 24 24 25 25 25 25 25 26 26 26 27 26 26 26 27 27 27 26 27 27 27 28 28 28 28 28 28 29 29 29 28 28 28 28 28 27 27 27
26 25 25 25 25 25 25 26 26 26 26 26 27 27 28 28 28 28 28 28 29 28 28 28 28 28 28 28 29 28 28 29 30 30 30 30 29 29 29 29 29 28 29
27 27 27 27 27 27 27 27 27 27 27 27 28 28 28 28 28 28 29 30 30 30 30 30 29 30 30 30 30 30 30 30 31 31 31 31 31 30 30 31 30 30 30
28 28 29 29 29 29 29 28 28 28 28 29 29 29 29 29 29 29 30 31 31 31 31 31 31 31 31 31 31 31 32 32 32 33 33 33 32 32 33 33 32 32 32
29 29 29 29 29 30 30 29 29 29 29 30 30 30 30 30 30 31 32 32 31 32 32 32 32 32 33 33 34 34 34 34 34 34 34 34 34 34 35 35 34 34 34
30 29 29 29 30 30 31 31 31 31 31 31 31 31 32 32 32 32 33 33 33 34 34 35 35 34 35 36 36 36 36 36 36 36 36 36 35 35 35 35 35 34 34
31 31 30 31 31 32 32 32 32 32 32 32 32 33 33 33 33 34 34 34 34 35 36 36 36 36 37 37 37 37 37 37 37 36 36 36 36 36 36 36 35 35 35

GEFSMW_500_meanwind_264.txt.gz
Wind_Speed
7 7 7 7 7 8 8 8 8 8 9 9 9 9 9 8 9 9 8 8 8 8 8 8 8 8 9 9 9 9 9 9 9 10 10 10 11 12 12 13 13 13 13
7 7 7 8 8 9 9 9 9 9 9 9 9 9 8 8 9 9 8 8 8 8 9 9 9 9 9 9 9 9 10 10 10 10 10 11 11 12 12 13 13 13 14
7 8 8 9 9 9 9 9 9 10 10 9 9 9 8 8 8 8 8 8 8 9 10 10 10 10 10 10 10 11 11 11 11 11 11 12 12 13 13 12 12 13 14
8 8 8 9 9 9 10 10 9 9 9 9 9 8 8 9 8 8 8 8 9 9 10 10 11 11 11 11 11 12 12 12 12 12 12 13 13 13 13 13 13 13 14
9 9 9 9 9 9 10 10 10 10 10 9 9 9 9 10 10 10 10 10 10 10 11 11 11 12 12 12 12 12 13 13 13 13 13 13 13 13 13 13 14 14 14
10 10 10 10 10 10 11 11 11 10 10 10 10 10 11 11 11 12 12 12 12 12 12 11 12 12 13 13 13 14 14 14 14 14 14 14 14 14 14 14 14 14 14
10 10 10 11 11 11 11 12 12 12 12 12 12 12 12 13 13 14 14 14 13 13 13 13 13 13 14 14 14 14 15 15 15 15 15 15 15 15 15 15 15 14 14
11 11 12 11 11 12 12 12 13 13 14 14 13 13 14 14 14 15 15 15 15 15 15 15 15 15 15 15 15 16 16 16 16 16 16 16 16 16 16 15 15 15 15
12 12 12 13 13 13 14 14 14 14 15 15 15 15 15 15 14 14 16 16 16 16 16 16 16 16 16 16 17 17 17 17 17 17 17 17 17 16 16 16 16 16 16
13 13 13 13 14 14 15 15 15 15 15 16 17 17 16 16 16 16 16 16 17 18 17 17 18 18 17 18 18 18 18 19 19 19 18 17 17 17 17 16 16 17 17
14 14 14 15 15 16 16 17 17 17 16 16 17 18 18 18 18 17 17 17 19 19 19 19 19 19 19 19 19 19 20 19 19 19 18 18 18 18 18 18 18 18 19
15 15 16 16 17 17 17 18 18 18 18 18 18 18 18 19 19 18 19 19 19 20 20 20 20 20 20 21 21 20 20 20 20 20 20 20 20 20 20 20 20 20 20
17 17 17 17 17 17 18 18 19 19 19 19 19 19 19 19 19 19 19 20 20 19 20 21 21 21 21 21 21 21 21 21 21 21 21 22 22 22 21 21 21 20 20
18 18 18 18 19 19 19 19 19 19 20 19 20 20 20 20 20 19 20 20 21 21 21 21 21 22 22 22 22 22 22 22 22 22 22 22 22 22 22 22 22 22 21
20 19 20 20 20 20 20 20 20 20 20 20 21 21 21 21 20 20 20 20 20 21 22 22 23 23 23 23 23 23 23 22 22 22 23 23 23 23 22 22 23 23 23
20 21 21 21 21 22 22 22 21 21 21 21 21 22 22 22 22 22 21 21 21 22 23 23 24 23 23 24 23 23 24 23 23 23 24 24 24 24 24 24 25 25 24
22 22 22 22 22 23 23 23 23 22 22 22 22 22 22 23 23 23 23 23 23 23 24 24 25 25 25 25 25 25 25 25 25 25 25 25 25 25 25 25 26 26 26
23 23 23 24 24 24 24 24 24 24 24 23 23 23 23 23 24 24 24 25 25 25 25 25 25 25 26 26 26 26 26 26 27 27 27 27 27 27 27 27 27 27 27
25 25 25 25 25 25 26 26 26 26 26 25 25 25 25 25 25 25 25 26 27 27 27 27 27 27 27 27 27 28 28 27 27 27 28 29 29 29 29 29 29 29 29
26 26 26 25 25 26 26 27 27 27 27 27 27 27 27 27 27 27 27 28 28 29 29 29 28 28 29 29 29 29 29 29 29 30 30 30 30 31 31 31 31 31 30
28 27 27 27 27 27 27 27 27 28 28 28 28 28 28 28 28 28 29 29 29 29 29 30 30 31 31 31 31 31 30 30 30 31 31 32 32 32 32 33 33 33 33
29 28 28 28 29 29 28 28 28 28 28 28 28 29 29 29 29 29 29 30 30 30 30 30 31 32 32 32 32 32 31 31 31 31 32 32 33 33 34 33 33 34 34
30 30 30 30 30 30 29 29 29 29 29 29 29 30 30 31 30 30 30 31 31 31 31 31 32 32 32 32 33 33 33 33 33 33 33 34 34 34 34 34 34 34 33
30 30 30 30 31 31 31 30 31 31 30 30 30 31 31 31 31 31 31 31 31 32 32 32 32 32 33 33 34 34 35 35 35 35 35 36 36 36 36 36 35 34 34
31 31 32 32 32 32 32 32 32 32 32 32 32 32 32 32 32 32 33 33 33 33 33 33 34 34 34 35 35 35 36 36 37 37 37 37 37 36 37 37 37 36 35
32 32 32 32 33 33 33 33 33 33 33 33 33 33 33 33 33 33 34 34 34 34 34 34 34 34 35 35 36 37 38 38 39 39 38 38 37 37 37 37 37 38 37

GEFSMW_500_meanwind_270.txt.gz
Wind_Speed
7 8 9 9 10 11 11 10 10 10 10 10 10 10 10 10 11 10 10 10 11 10 10 10 9 9 10 10 10 10 10 10 10 10 10 10 10 11 11 12 13 13 13
8 9 9 9 10 10 10 10 10 11 11 11 11 11 11 11 11 10 10 11 11 11 10 10 10 10 10 10 10 10 10 10 10 10 10 10 11 11 12 12 13 14 14
9 10 10 11 11 11 11 11 11 11 11 12 11 11 11 11 11 11 11 11 11 11 10 10 11 11 11 10 11 11 11 10 10 11 11 11 12 12 12 13 13 14 14
10 10 11 11 11 11 10 11 11 12 12 12 11 11 11 11 12 12 11 11 11 12 11 11 11 11 12 12 12 11 11 12 12 12 12 13 13 13 13 14 14 14 14
10 11 11 11 11 10 10 11 11 11 12 12 12 11 12 12 13 13 13 13 13 13 12 12 12 12 12 13 13 13 13 13 13 13 14 14 14 14 14 14 15 15 14
10 11 10 10 10 11 11 11 11 11 12 12 12 12 13 14 14 14 14 15 15 15 15 14 14 14 14 14 14 14 14 14 14 15 15 15 15 15 15 15 15 15 15
10 10 10 10 11 11 11 11 11 12 12 13 13 14 14 15 15 16 16 16 17 17 17 16 16 15 15 16 15 15 15 15 15 15 15 15 16 16 15 16 16 16 16
11 11 12 12 12 13 13 12 13 13 14 14 15 15 16 16 17 17 17 17 18 18 18 18 17 17 17 17 17 16 16 16 16 16 16 16 16 16 16 16 16 16 16
12 12 12 13 13 14 14 14 14 15 15 16 17 17 17 17 17 18 18 18 18 19 20 20 19 19 19 18 18 18 18 18 18 17 17 17 17 16 16 16 16 16 16
13 13 13 14 14 15 15 16 16 17 17 17 18 18 18 18 18 18 18 18 19 19 20 20 20 20 20 20 20 19 19 19 19 19 18 18 18 18 18 17 17 18 18
14 14 15 15 16 16 17 17 18 18 19 19 19 19 19 19 19 19 19 19 19 19 18 19 20 21 21 21 21 21 20 20 20 20 20 19 19 19 19 19 19 19 19
15 16 16 17 17 18 18 18 19 20 20 21 21 20 20 20 20 20 20 20 20 20 20 20 20 21 21 22 22 22 22 22 22 21 21 21 21 20 20 20 20 20 20
16 17 17 18 19 19 19 20 20 21 21 21 21 21 21 21 21 20 21 21 21 21 21 20 21 22 22 22 22 23 23 23 23 23 23 23 22 22 21 21 21 21 21
18 18 19 19 19 20 20 20 21 21 22 22 22 22 22 22 22 22 22 22 22 22 23 22 22 23 23 23 23 24 23 23 24 23 23 23 24 23 23 22 23 23 22
19 19 20 20 20 20 21 21 21 22 23 23 23 23 23 23 23 23 23 23 23 23 23 23 23 23 23 23 24 24 25 25 24 24 24 24 25 24 24 23 24 24 24
20 20 21 21 21 22 22 22 23 23 24 24 25 25 25 25 25 25 25 25 25 25 25 25 25 24 24 24 24 25 25 25 26 26 26 25 25 25 25 25 25 25 25
20 21 22 22 22 23 23 23 24 25 25 25 26 25 25 26 26 26 26 26 26 26 26 26 26 26 25 25 25 25 25 26 25 26 26 26 26 26 26 26 26 26 26
21 22 23 23 23 23 23 24 25 26 26 26 26 26 25 26 26 26 26 26 27 27 27 27 27 27 26 26 26 27 27 27 26 26 26 26 27 27 27 27 27 27 27
23 23 23 24 24 24 24 25 26 26 26 26 27 26 26 26 27 27 27 28 28 28 29 29 28 28 28 28 29 29 28 28 28 28 28 29 29 29 29 29 29 29 29
25 25 25 25 26 26 26 26 26 27 27 27 27 27 27 27 27 28 28 29 29 30 30 30 30 30 30 30 30 30 30 30 30 30 30 29 29 29 30 30 30 30 31
26 27 28 28 28 28 27 27 27 27 27 27 27 27 28 28 29 29 29 30 30 30 30 31 31 31 31 31 31 31 31 31 31 31 30 30 30 30 31 31 31 32 32
27 28 28 29 29 29 29 28 28 28 28 28 28 28 29 29 30 30 30 30 30 30 31 31 31 32 32 32 32 32 32 32 32 32 31 31 31 31 31 32 32 32 33
27 28 29 29 29 29 29 29 29 29 29 29 29 29 30 31 31 31 31 30 30 30 31 31 31 31 31 32 33 33 33 33 33 33 33 33 33 33 33 33 33 33 34
28 29 29 29 30 30 30 30 31 30 30 30 31 31 31 32 32 32 32 32 32 32 31 31 31 32 32 32 33 33 34 34 35 35 34 35 35 35 35 35 35 35 36
29 29 29 29 30 31 31 31 31 31 31 31 32 32 32 32 33 33 33 33 33 32 32 32 33 33 33 33 34 34 34 34 35 36 36 35 36 36 36 36 36 37 37
30 30 31 31 31 31 31 31 32 32 32 32 33 33 34 33 33 33 34 34 33 33 33 34 34 34 34 35 35 35 35 35 36 36 36 36 37 37 37 37 37 38 37

GEFSMW_500_meanwind_276.txt.gz
Wind_Speed
10 10 11 11 12 12 12 12 12 12 12 12 12 12 12 12 12 12 12 12 11 12 12 11 12 12 12 12 11 11 12 11 11 11 11 12 11 11 12 12 11 12 12
10 11 11 11 12 12 12 12 12 13 13 12 12 12 13 13 13 13 13 12 12 12 13 13 12 12 12 12 12 12 12 12 12 11 11 11 11 11 12 12 12 12 13
10 11 11 11 12 12 13 13 13 13 13 13 13 13 13 13 14 14 14 14 13 14 13 13 13 13 13 13 12 13 13 13 12 12 12 12 12 12 12 12 12 13 13
12 12 12 12 12 13 13 13 13 13 13 13 13 13 13 14 14 14 14 15 14 15 14 14 14 13 13 13 13 13 13 13 13 13 13 13 13 13 13 13 14 14 14
12 13 13 12 13 13 13 14 14 14 13 13 13 14 14 14 15 15 16 15 15 15 15 15 15 14 14 14 14 14 14 14 14 14 14 15 15 15 15 15 15 15 14
12 13 13 13 13 13 14 15 14 14 14 14 14 14 15 16 16 16 17 17 17 17 16 15 15 15 15 15 15 15 15 15 15 15 15 15 15 15 15 15 15 15 15
13 13 13 14 14 14 15 15 15 15 15 15 15 16 16 17 17 18 17 17 17 17 16 16 15 15 15 16 16 17 17 17 16 17 16 16 16 16 16 16 16 16 15
13 13 13 14 15 15 15 16 16 16 16 16 17 17 18 18 18 18 18 18 18 17 18 18 17 17 16 17 17 18 18 18 17 17 17 17 16 16 16 16 16 16 16
14 14 14 15 15 16 16 16 17 17 17 18 18 19 19 19 19 19 19 19 19 19 19 18 18 18 18 18 18 18 18 18 18 18 18 18 17 17 16 17 17 17 17
15 15 15 16 16 16 17 17 18 18 19 20 20 20 20 20 20 20 20 20 19 19 19 19 19 19 20 20 20 20 20 19 19 19 19 19 18 18 17 18 18 18 18
16 16 16 17 18 18 18 18 19 20 20 21 21 21 21 21 21 21 21 21 21 21 21 21 21 21 21 21 21 21 21 21 20 20 20 19 19 19 19 19 19 19 19
17 18 18 18 19 19 19 20 20 21 22 22 22 22 22 22 22 22 22 22 22 22 22 22 23 23 23 22 22 22 22 22 22 21 21 21 21 21 21 21 20 20 21
18 19 19 20 20 20 20 21 21 21 22 23 23 23 23 23 23 23 23 22 23 23 22 22 23 23 23 23 22 23 22 22 22 22 22 22 22 22 22 23 23 22 22
20 20 21 21 22 22 22 22 23 23 23 23 24 24 24 24 23 23 23 23 23 23 23 23 23 23 23 23 23 23 22 23 23 23 23 23 23 23 24 24 24 24 24
21 22 22 22 23 24 24 24 24 25 25 25 25 25 25 25 24 24 24 24 24 24 25 24 24 24 24 24 24 23 24 24 24 24 24 24 24 25 25 25 25 25 25
23 23 23 24 24 25 25 25 25 25 25 25 24 24 24 25 25 25 25 25 25 25 25 25 25 25 24 24 25 25 25 25 25 25 24 24 24 25 26 26 26 26 25
25 25 25 25 26 26 26 26 26 25 25 24 25 25 25 25 26 26 26 26 26 26 26 26 26 25 25 26 26 26 27 26 26 26 26 25 25 25 25 26 27 27 27
26 26 26 26 27 27 27 27 26 26 26 25 25 26 26 26 27 27 27 27 27 27 27 27 27 26 26 27 27 27 28 28 28 27 27 26 25 26 26 27 27 28 28
27 26 26 26 26 26 27 27 28 28 27 27 27 27 28 28 28 28 28 28 28 28 28 28 28 27 27 28 28 28 29 28 28 28 28 27 26 26 27 28 28 28 29
27 27 27 26 26 27 27 28 29 29 29 29 29 29 29 30 30 30 29 29 29 29 29 29 29 29 28 29 29 29 29 28 29 29 29 29 29 28 29 29 29 30 31
28 28 28 28 28 28 28 29 30 30 31 32 31 31 31 31 31 31 31 31 30 30 30 30 30 30 30 30 29 30 30 30 30 30 30 30 30 30 31 31 31 31 31
29 29 29 29 29 29 30 31 31 31 32 32 32 32 32 33 32 32 33 32 32 31 31 31 31 31 31 31 31 31 30 30 30 30 30 31 31 31 31 31 32 32 33
29 29 30 30 30 30 32 32 33 33 33 33 33 34 34 34 34 33 33 33 32 31 31 31 31 31 31 32 32 32 31 31 31 31 32 32 32 32 32 32 32 33 33
29 30 30 31 31 31 32 33 34 35 36 36 35 34 34 34 34 33 33 33 32 32 32 32 32 32 32 32 32 32 31 31 31 31 32 32 32 33 33 33 33 34 35
30 30 31 31 32 32 32 33 34 35 35 35 35 35 35 34 34 34 33 32 33 33 32 32 32 33 33 33 33 33 32 32 31 32 32 32 33 33 34 34 34 35 35
32 32 32 33 33 33 33 34 34 34 34 34 34 34 34 34 34 33 33 33 34 34 34 33 33 33 33 33 33 34 34 34 34 34 34 33 33 34 34 34 34 35 35

GEFSMW_500_meanwind_282.txt.gz
Wind_Speed
7 7 7 8 8 8 8 9 9 9 10 10 10 10 10 10 10 11 11 11 11 11 11 11 11 11 11 11 11 12 11 11 10 10 11 11 11 11 11 10 11 11 11
8 8 8 9 9 9 9 9 10 10 11 11 11 11 11 11 11 12 12 12 12 12 12 12 12 12 11 11 12 12 12 11 11 11 11 11 11 11 11 11 12 12 12
8 8 9 9 10 10 10 10 11 11 12 12 12 12 12 12 12 13 13 12 12 12 12 12 12 12 13 12 12 12 12 12 11 11 11 11 11 11 12 12 12 12 12
8 8 9 10 10 10 10 11 12 12 12 12 12 12 12 12 13 13 13 13 12 13 14 14 13 13 14 14 13 12 13 13 13 13 12 12 12 12 12 12 12 12 12
8 8 9 9 10 11 11 12 12 13 13 13 13 13 13 13 13 14 14 14 15 15 15 15 15 15 15 14 14 13 13 13 13 13 12 12 12 13 13 12 13 13 13
8 8 9 10 10 11 12 13 13 14 14 14 14 14 14 14 14 15 15 15 16 16 16 16 16 16 16 15 14 14 14 14 13 13 13 13 13 13 13 13 13 13 13
9 9 10 11 12 12 13 13 14 14 14 14 15 15 15 15 15 16 16 16 17 17 17 16 16 17 17 16 15 15 15 14 14 14 14 14 14 13 13 14 14 14 14
11 11 11 12 12 12 13 14 15 15 15 16 16 16 16 16 16 17 17 17 17 17 17 17 17 17 17 17 16 16 15 15 15 15 15 16 15 15 15 15 15 15 14
12 13 13 13 13 14 14 15 15 16 16 17 17 17 17 17 18 18 18 18 18 17 17 18 18 17 17 18 18 18 17 17 16 16 17 17 17 17 16 17 16 16 15
14 14 15 15 15 15 16 16 17 17 17 17 17 17 17 18 19 18 18 19 18 18 18 18 18 18 18 18 18 19 19 18 18 18 18 19 19 19 19 18 18 18 17
15 16 16 16 16 17 17 18 18 18 18 18 17 18 18 19 19 19 19 19 19 19 19 19 19 19 19 19 19 20 20 20 20 20 20 20 21 21 20 20 20 20 19
16 17 17 18 18 18 19 19 19 19 19 19 19 19 19 19 19 19 19 19 18 19 19 19 19 20 20 20 20 20 21 22 22 22 21 21 22 22 22 22 22 22 21
18 18 19 19 19 20 20 20 19 20 21 20 20 20 20 19 19 19 19 19 19 19 19 20 20 20 21 21 21 22 22 22 23 23 23 23 23 23 23 23 23 23 23
19 19 20 20 21 21 21 21 21 21 21 21 21 21 21 21 21 20 20 20 20 20 20 20 20 20 20 21 21 22 22 22 23 23 23 24 25 25 24 24 23 23 23
20 20 21 21 22 22 22 22 22 23 22 22 22 22 22 22 22 21 21 21 21 21 22 21 21 21 21 21 22 22 22 22 22 23 23 24 24 24 24 24 24 24 24
22 22 22 22 22 23 23 24 24 24 23 24 23 23 23 23 23 23 23 22 22 22 22 23 23 23 23 23 22 21 22 22 23 23 22 22 23 23 23 23 24 24 24
23 24 23 23 24 24 24 25 25 25 25 25 25 25 25 25 25 25 24 24 24 24 24 24 24 24 24 24 24 23 23 23 24 24 24 24 24 24 23 24 24 25 25
25 25 24 24 24 25 26 26 26 26 26 26 26 27 27 26 26 26 26 26 26 26 26 26 25 25 25 25 26 26 25 25 25 26 26 26 25 25 26 26 26 26 26
25 25 25 25 25 25 26 26 27 27 27 28 28 28 29 28 28 28 27 28 28 28 28 27 27 27 27 27 27 27 27 27 26 27 27 28 28 27 27 28 28 28 28
24 25 25 25 25 26 27 27 27 28 28 29 29 30 30 30 30 29 29 29 29 29 29 28 28 28 28 28 28 28 28 28 28 28 28 28 29 29 29 29 29 29 29
25 25 26 26 26 27 28 29 30 30 30 30 30 31 31 31 31 30 30 30 30 30 30 29 29 29 29 29 29 29 29 29 29 29 29 29 30 30 31 31 31 30 31
26 26 26 27 27 28 29 30 30 30 30 30 31 31 31 31 31 31 31 31 31 31 31 30 30 30 31 31 31 31 31 31 31 31 31 30 30 31 31 31 31 32 32
26 27 27 27 28 28 29 30 30 30 29 30 30 31 31 31 31 31 31 30 30 31 32 32 31 32 33 33 33 33 33 33 32 32 32 32 31 31 31 31 32 33 34
28 28 29 28 28 29 29 30 30 30 30 30 30 30 30 31 31 31 31 31 31 31 31 32 32 32 33 33 34 34 34 33 33 33 33 33 32 32 32 32 32 33 34
29 29 29 30 30 30 30 30 30 30 30 31 31 31 31 31 31 31 31 31 31 31 31 31 32 33 33 33 34 34 33 33 34 34 34 34 34 34 34 34 33 33 34
29 30 30 31 31 31 31 31 31 31 31 30 31 31 31 31 31 31 31 31 31 32 32 32 32 32 33 33 33 33 33 33 34 34 34 34 34 34 34 34 34 35 35